This is the latest recevied weather packets stored in our database for station/object W4JCW. If no packets are shown the sender has not sent any weather packets the latest 10 day(s).
| Time | Temp. | Humidity | Pressure | Rain* | Wind** | Luminosity | Snow |
|---|---|---|---|---|---|---|---|
| 1777678873 | 17.78° C | 67% | 1010 hPa | 0 mm | - | 18 W/m² | - |
| 1777678571 | 17.78° C | 67% | 1010.2 hPa | 0 mm | - | 22 W/m² | - |
| 1777678268 | 17.78° C | 66% | 1010.1 hPa | 0 mm | - | 18 W/m² | - |
| 1777677963 | 18.33° C | 66% | 1010.4 hPa | 0 mm | - | 22 W/m² | - |
| 1777677661 | 18.33° C | 66% | 1010.4 hPa | 0 mm | - | 26 W/m² | - |
| 1777677359 | 18.33° C | 64% | 1010.2 hPa | 0 mm | - | 26 W/m² | - |
| 1777677056 | 18.33° C | 64% | 1010.3 hPa | 0 mm | - | 34 W/m² | - |
| 1777676755 | 18.33° C | 65% | 1010.3 hPa | 0 mm | - | 46 W/m² | - |
| 1777676453 | 18.33° C | 63% | 1010.3 hPa | 0 mm | - | 48 W/m² | - |
| 1777676150 | 18.33° C | 63% | 1010.2 hPa | 0 mm | - | 47 W/m² | - |
| 1777675846 | 18.89° C | 61% | 1010.3 hPa | 0 mm | - | 52 W/m² | - |
| 1777675544 | 18.89° C | 61% | 1010.4 hPa | 0 mm | - | 58 W/m² | - |
| 1777675241 | 18.89° C | 61% | 1010.8 hPa | 0 mm | - | 49 W/m² | - |
| 1777674937 | 18.89° C | 60% | 1010.6 hPa | 0 mm | - | 64 W/m² | - |
| 1777674633 | 19.44° C | 60% | 1010.5 hPa | 0 mm | - | 103 W/m² | - |
| 1777674334 | 19.44° C | 59% | 1010.8 hPa | 0 mm | - | 72 W/m² | - |
| 1777674027 | 19.44° C | 59% | 1010.6 hPa | 0 mm | - | 85 W/m² | - |
| 1777673723 | 19.44° C | 59% | 1010.6 hPa | 0 mm | - | 86 W/m² | - |
| 1777673421 | 19.44° C | 59% | 1010.7 hPa | 0 mm | - | 100 W/m² | - |
| 1777673119 | 19.44° C | 58% | 1010.7 hPa | 0 mm | - | 71 W/m² | - |
| 1777672815 | 19.44° C | 58% | 1010.6 hPa | 0 mm | - | 146 W/m² | - |
| 1777672511 | 20° C | 59% | 1010.5 hPa | 0 mm | - | 134 W/m² | - |
| 1777672207 | 19.44° C | 58% | 1010.7 hPa | 0 mm | - | 191 W/m² | - |
| 1777671902 | 19.44° C | 58% | 1010.8 hPa | 0 mm | - | 341 W/m² | - |
| 1777671598 | 19.44° C | 57% | 1010.6 hPa | 0 mm | - | 164 W/m² | - |
* Rain latest hour (hover to see other rain measurements)
** Current wind speed in m/s (hover to see current wind gust speed)